User: anonymous   Login
Location: Central Coast
(33.3208°S, 151.2336°E)
Time: 22:38:15
(UTC+10:00)
Language:

Hubble Space Telescope - Orbit

View from above orbital plane
View from above orbital plane
View from above satellite
View from above satellite

Ground track
Ground track

The orbit data is extracted from the following two-line orbital elements,

1 20580U 90037B   18225.91763128 +.00000392 +00000-0 +13004-4 0  9995
2 20580 028.4697 093.4650 0002786 044.6877 036.2246 15.09075561354115
Epoch (UTC): 13 August 2018 22:01:23
Eccentricity: 0.0002786
inclination: 28.4697°
perigee height: 537 km
apogee height: 541 km
right ascension of ascending node: 93.4650°
argument of perigee: 44.6877°
revolutions per day: 15.09075561
mean anomaly at epoch: 36.2246°
orbit number at epoch: 35411

The dashed part of the orbit path shows where the satellite is in the earth's shadow,  

DLR